Stündliche Wetter Holubytsya

Heute, 16 Juni, Mittwoch

Zeit Temperatur Niederschläge Wind Luftdruck Luftfeuchtigkeit
00:00 +14°C° 0 mm 2 m/S 731 mmHg 90%
01:00 +14°C° 0 mm 2 m/S 731 mmHg 91%
02:00 +13°C° 0 mm 2 m/S 731 mmHg 90%
03:00 +13°C° 0 mm 2 m/S 731 mmHg 91%
04:00 +13°C° 0 mm 2 m/S 731 mmHg 91%
05:00 +13°C° 0 mm 2 m/S 731 mmHg 92%
06:00 +15°C° 0 mm 2 m/S 731 mmHg 88%
07:00 +16°C° 0 mm 3 m/S 731 mmHg 84%
08:00 +18°C° 0 mm 3 m/S 732 mmHg 81%
09:00 +19°C° 0.1 mm 3 m/S 732 mmHg 77%
10:00 +20°C° 0.1 mm 3 m/S 732 mmHg 73%
11:00 +22°C° 0.1 mm 3 m/S 732 mmHg 69%
12:00 +22°C° 0.4 mm 4 m/S 732 mmHg 68%
13:00 +22°C° 0.4 mm 4 m/S 732 mmHg 68%
14:00 +23°C° 0.4 mm 4 m/S 732 mmHg 68%
15:00 +22°C° 0.4 mm 4 m/S 732 mmHg 71%
16:00 +22°C° 0.4 mm 4 m/S 732 mmHg 73%
17:00 +22°C° 0.4 mm 4 m/S 732 mmHg 76%
18:00 +21°C° 0.2 mm 4 m/S 732 mmHg 80%
19:00 +19°C° 0.2 mm 3 m/S 732 mmHg 83%
20:00 +18°C° 0.2 mm 3 m/S 732 mmHg 87%
21:00 +17°C° 0 mm 2 m/S 732 mmHg 88%
22:00 +16°C° 0 mm 2 m/S 733 mmHg 89%
23:00 +15°C° 0 mm 2 m/S 733 mmHg 91%

Morgen, 17 Juni, Donnerstag

Zeit Temperatur Niederschläge Wind Luftdruck Luftfeuchtigkeit
00:00 +14°C° 0 mm 2 m/S 733 mmHg 91%
01:00 +14°C° 0 mm 2 m/S 733 mmHg 91%
02:00 +13°C° 0 mm 2 m/S 733 mmHg 91%
03:00 +13°C° 0 mm 2 m/S 733 mmHg 91%
04:00 +13°C° 0 mm 2 m/S 733 mmHg 91%
05:00 +13°C° 0 mm 2 m/S 733 mmHg 91%
06:00 +15°C° 0 mm 2 m/S 734 mmHg 86%
07:00 +16°C° 0 mm 2 m/S 734 mmHg 82%
08:00 +18°C° 0 mm 2 m/S 734 mmHg 77%
09:00 +19°C° 0 mm 3 m/S 735 mmHg 74%
10:00 +21°C° 0 mm 3 m/S 735 mmHg 71%
11:00 +22°C° 0 mm 3 m/S 735 mmHg 68%
12:00 +24°C° 0 mm 3 m/S 735 mmHg 66%
13:00 +24°C° 0 mm 3 m/S 735 mmHg 65%
14:00 +25°C° 0 mm 3 m/S 735 mmHg 63%
15:00 +25°C° 0.1 mm 3 m/S 735 mmHg 65%
16:00 +25°C° 0.1 mm 3 m/S 735 mmHg 67%
17:00 +25°C° 0.1 mm 3 m/S 735 mmHg 69%
18:00 +24°C° 0.1 mm 3 m/S 735 mmHg 74%
19:00 +21°C° 0.1 mm 3 m/S 735 mmHg 78%
20:00 +20°C° 0.1 mm 2 m/S 735 mmHg 83%
21:00 +19°C° 0 mm 2 m/S 735 mmHg 85%
22:00 +18°C° 0 mm 2 m/S 735 mmHg 88%
23:00 +17°C° 0 mm 2 m/S 735 mmHg 90%

übermorgen, 18 Juni, Freitag

Zeit Temperatur Niederschläge Wind Luftdruck Luftfeuchtigkeit
00:00 +17°C° 0 mm 2 m/S 735 mmHg 91%
01:00 +17°C° 0 mm 2 m/S 735 mmHg 92%
02:00 +16°C° 0 mm 2 m/S 735 mmHg 93%
03:00 +16°C° 0 mm 2 m/S 735 mmHg 94%
04:00 +16°C° 0 mm 2 m/S 735 mmHg 95%
05:00 +16°C° 0 mm 2 m/S 735 mmHg 95%
06:00 +17°C° 0 mm 3 m/S 735 mmHg 91%
07:00 +19°C° 0 mm 3 m/S 735 mmHg 88%
08:00 +21°C° 0 mm 4 m/S 736 mmHg 84%
09:00 +22°C° 0 mm 4 m/S 736 mmHg 79%
10:00 +23°C° 0 mm 4 m/S 736 mmHg 73%
11:00 +25°C° 0 mm 4 m/S 736 mmHg 68%
12:00 +25°C° 0 mm 4 m/S 735 mmHg 66%
13:00 +26°C° 0 mm 4 m/S 735 mmHg 64%
14:00 +26°C° 0 mm 4 m/S 735 mmHg 61%
15:00 +26°C° 0 mm 4 m/S 735 mmHg 64%
16:00 +26°C° 0 mm 4 m/S 735 mmHg 67%
17:00 +26°C° 0 mm 4 m/S 735 mmHg 70%
18:00 +23°C° 0 mm 4 m/S 735 mmHg 76%
19:00 +22°C° 0 mm 4 m/S 735 mmHg 81%
20:00 +20°C° 0 mm 3 m/S 735 mmHg 87%
21:00 +20°C° 0 mm 3 m/S 735 mmHg 88%
22:00 +19°C° 0 mm 3 m/S 735 mmHg 90%
23:00 +18°C° 0 mm 3 m/S 735 mmHg 91%

19 Juni, Samstag

Zeit Temperatur Niederschläge Wind Luftdruck Luftfeuchtigkeit
00:00 +18°C° 0 mm 3 m/S 735 mmHg 93%
01:00 +17°C° 0 mm 3 m/S 735 mmHg 94%
02:00 +17°C° 0 mm 3 m/S 735 mmHg 96%
03:00 +17°C° 0 mm 3 m/S 735 mmHg 96%
04:00 +16°C° 0 mm 2 m/S 735 mmHg 97%
05:00 +16°C° 0 mm 2 m/S 735 mmHg 97%
06:00 +18°C° 0 mm 3 m/S 735 mmHg 92%
07:00 +19°C° 0 mm 4 m/S 735 mmHg 87%
08:00 +21°C° 0 mm 4 m/S 736 mmHg 82%
09:00 +22°C° 0 mm 5 m/S 735 mmHg 78%
10:00 +23°C° 0 mm 5 m/S 735 mmHg 73%
11:00 +24°C° 0 mm 6 m/S 735 mmHg 69%
12:00 +24°C° 0.2 mm 6 m/S 735 mmHg 68%
13:00 +24°C° 0.2 mm 6 m/S 735 mmHg 68%
14:00 +24°C° 0.2 mm 6 m/S 735 mmHg 67%
15:00 +25°C° 0.8 mm 5 m/S 734 mmHg 73%
16:00 +23°C° 0.8 mm 5 m/S 734 mmHg 78%
17:00 +22°C° 0.8 mm 5 m/S 734 mmHg 83%
18:00 +21°C° 0.4 mm 4 m/S 734 mmHg 86%
19:00 +20°C° 0.4 mm 3 m/S 734 mmHg 89%
20:00 +19°C° 0.4 mm 2 m/S 734 mmHg 92%
21:00 +19°C° 0 mm 2 m/S 734 mmHg 93%
22:00 +18°C° 0 mm 2 m/S 734 mmHg 94%
23:00 +17°C° 0 mm 2 m/S 734 mmHg 95%

20 Juni, Sonntag

Zeit Temperatur Niederschläge Wind Luftdruck Luftfeuchtigkeit
00:00 +17°C° 0 mm 2 m/S 734 mmHg 95%
01:00 +17°C° 0 mm 2 m/S 734 mmHg 95%
02:00 +17°C° 0 mm 3 m/S 734 mmHg 95%
03:00 +16°C° 0 mm 2 m/S 734 mmHg 96%
04:00 +16°C° 0 mm 2 m/S 734 mmHg 96%
05:00 +16°C° 0 mm 2 m/S 734 mmHg 96%
06:00 +18°C° 0 mm 3 m/S 734 mmHg 92%
07:00 +19°C° 0 mm 3 m/S 734 mmHg 88%
08:00 +21°C° 0 mm 4 m/S 734 mmHg 84%
09:00 +22°C° 0.2 mm 4 m/S 734 mmHg 81%
10:00 +23°C° 0.2 mm 5 m/S 734 mmHg 77%
11:00 +25°C° 0.2 mm 5 m/S 734 mmHg 74%
12:00 +25°C° 0.7 mm 5 m/S 734 mmHg 71%
13:00 +26°C° 0.7 mm 5 m/S 734 mmHg 68%
14:00 +26°C° 0.7 mm 5 m/S 734 mmHg 66%
15:00 +26°C° 0 mm 5 m/S 733 mmHg 67%
16:00 +26°C° 0 mm 4 m/S 733 mmHg 69%
17:00 +26°C° 0 mm 4 m/S 733 mmHg 70%
18:00 +25°C° 0 mm 4 m/S 733 mmHg 75%
19:00 +22°C° 0 mm 4 m/S 733 mmHg 81%
20:00 +21°C° 0 mm 3 m/S 733 mmHg 86%
21:00 +20°C° 0 mm 3 m/S 733 mmHg 89%
22:00 +19°C° 0 mm 3 m/S 733 mmHg 91%
23:00 +18°C° 0 mm 3 m/S 733 mmHg 94%

21 Juni, Montag

Zeit Temperatur Niederschläge Wind Luftdruck Luftfeuchtigkeit
00:00 +18°C° 0 mm 3 m/S 732 mmHg 94%
01:00 +17°C° 0 mm 3 m/S 732 mmHg 94%
02:00 +17°C° 0 mm 2 m/S 732 mmHg 95%
03:00 +17°C° 0 mm 2 m/S 732 mmHg 95%
04:00 +17°C° 0 mm 2 m/S 732 mmHg 95%
05:00 +16°C° 0 mm 2 m/S 732 mmHg 95%
06:00 +18°C° 0 mm 3 m/S 732 mmHg 90%
07:00 +19°C° 0 mm 4 m/S 732 mmHg 84%
08:00 +21°C° 0 mm 4 m/S 732 mmHg 78%
09:00 +22°C° 0 mm 4 m/S 732 mmHg 74%
10:00 +23°C° 0 mm 4 m/S 732 mmHg 70%
11:00 +25°C° 0 mm 4 m/S 732 mmHg 65%
12:00 +26°C° 0 mm 4 m/S 731 mmHg 66%
13:00 +26°C° 0 mm 4 m/S 731 mmHg 66%
14:00 +26°C° 0 mm 4 m/S 731 mmHg 67%
15:00 +26°C° 0.1 mm 4 m/S 730 mmHg 69%
16:00 +25°C° 0.1 mm 4 m/S 730 mmHg 71%
17:00 +25°C° 0.1 mm 3 m/S 730 mmHg 73%
18:00 +24°C° 0.2 mm 3 m/S 730 mmHg 77%
19:00 +23°C° 0.2 mm 2 m/S 730 mmHg 81%
20:00 +21°C° 0.2 mm 2 m/S 729 mmHg 85%
21:00 +20°C° 0 mm 2 m/S 729 mmHg 88%
22:00 +19°C° 0 mm 2 m/S 729 mmHg 90%
23:00 +18°C° 0 mm 2 m/S 728 mmHg 93%
Mehr zeigen

Wir brauchen deine Erlaubnis

Meteoprog und unser Service Anbieter werden persönliche Daten aufbewahren, so wie Cookies, Geräte Bezeichnung oder ähnliche Technologien von deinem Gerät und Prozess, so wie Persönliche Daten Inhalte und Werbungen, genauso wie social Media und den Verkehr zu analysieren.

  • Aufbewahrung und/oder Zugang zu deiner Geräte Informationen.

    Cookies, Geräte Bezeichnung oder andere Informationen, können aufbewahrt oder Zugang zu deinem Gerät erhalten, für den Grund, der oben angegeben wird.

  • Personalisierte Werbung und Inhalte, Messungen, Einblick in das Publikum und Produkt Entwicklung.

    Werbungen und Inhalte können personalisiert werden, basierend auf ein Profil. Mehr Daten können besser personalisierte Werbungen und Inhalte hinzufügen. Werbung und Inhalte können gezeigt und gemessen werden. Einblicke über das Publikum, welche die Werbung gesehen haben und den Inhalt, können abgeleitet werden. So wie Daten können genutzt werden, um es zu verbessern oder die Benutzer Erfahrung zu verbessern das System und die Software.

Wenn du “Ich stimme zu” klickst, erlaubst du uns, die Cookies zu benutzen die Geräte Bezeichnung, den Web oder ähnliche Technologien zu benutzen. Deine Settings, können in deinem Gerät bei deinem Browser geändert werden.

Für den bestimmten Zweck, berechtigten Interessen beruhen darauf, mehr als auf den Inhalt. Du kannst mehr darüber in unseren Privaten und Cookie Politik lesen.